Flag for Germany Weather past 2 weeks in Bernburg (Saale), Saxony-Anhalt, Germany

Now
61 °F

Overcast.


Feels Like: 61 °F
Forecast: 53 / 65 °F
Wind: 1 mph from Southeast

Location: Magdeburg

Current Time: Sep 20, 2014 at 6:53:57 AM

Latest Report: Sep 20, 2014 at 6:00 AM


Visibility: 1 mi

Pressure: 29.91 "Hg

Humidity: 98%

Dew point: 60 °F

Location of Bernburg (Saale)Location

Historic Weather in Bernburg (Saale) — Graph

°F

Bernburg (Saale) temperature yesterday

Maximum temperature yesterday: 66 °F (at 6:00 PM)
Minimum temperature yesterday: 61 °F (at 7:00 AM)
Average temperature yesterday: 63 °F

Past Weeks' High & Low Weather Summary

 TemperatureHumidityPressure
High80 °F (Sep 5, 4:00 PM)98% (Sep 6, 8:00 AM)30.19 "Hg (Sep 6, 8:00 AM)
Low52 °F (Sep 9, 4:00 AM)43% (Sep 17, 6:00 PM)29.85 "Hg (Sep 6, 6:00 PM)
Average63 °F84%30.03 "Hg
* Reported Sep 5 6:00 AM — Sep 20 6:00 AM, Bernburg (Saale), Weather by CustomWeather, © 2014

Note: Actual official high and low records may vary slightly from our data, if they occured in-between our weather recording intervals... More about our weather records

Advertising

Bernburg (Saale) weather history for previous 24 hours

 ConditionsComfort  
Time TempWeatherWind HumidityBarometerVisibility
6:00 AM
Sep 20
61 °FOvercast.1 mph98%29.91 "Hg1 mi
5:00 AM61 °FLight rain. Overcast.1 mph98%29.92 "Hg1 mi
4:00 AM61 °FFog.1 mph98%29.92 "Hg1 mi
3:00 AM61 °FFog.1 mph98%29.93 "Hg1 mi
2:00 AM61 °FFog.1 mph97%29.93 "Hg1 mi
1:00 AM62 °FFog.1 mph96%29.93 "Hg1 mi
12:00 AM62 °FFog.No wind96%29.93 "Hg2 mi
10:00 PM
Sep 19
63 °FFog.1 mph94%29.93 "Hg2 mi
9:00 PM63 °FFog.1 mph95%29.93 "Hg3 mi
8:00 PM63 °FFog.1 mph94%29.92 "Hg3 mi
7:00 PM65 °FOvercast.2 mph89%29.91 "Hg6 mi
6:00 PM66 °FOvercast.2 mph86%29.91 "Hg9 mi
4:00 PM65 °FOvercast.2 mph88%29.92 "Hg10 mi
3:00 PM65 °FOvercast.1 mph90%29.93 "Hg7 mi
2:00 PM64 °FOvercast.2 mph92%29.92 "Hg4 mi
1:00 PM63 °FLight rain. Overcast.2 mph95%29.93 "Hg1 mi
12:00 PM63 °FRain. Overcast.2 mph95%29.95 "Hg1 mi
10:00 AM62 °FLight rain. Overcast.1 mph96%29.93 "Hg1 mi
9:00 AM61 °FLight rain. Overcast.1 mph96%29.92 "Hg1 mi
8:00 AM61 °FLight rain. Overcast.1 mph96%29.93 "Hg1 mi
7:00 AM61 °FLight rain. Overcast.1 mph96%29.92 "Hg2 mi
6:00 AM61 °FLight rain. Overcast.1 mph96%29.92 "Hg2 mi
Weather by CustomWeather, © 2014

See weather overviewHow to use our weather pages